Flag for Kenya Weather past 2 weeks in Nairobi, Kenya

Now
61 °F

Clear.


Feels Like: 61 °F
Forecast: 56 / 76 °F
Wind: 8 mph from South

Location: Nairobi / Wilson

Current Time: Aug 22, 2014 at 12:02:01 AM

Latest Report: Aug 21, 2014 at 11:00 PM


Visibility: N/A

Pressure: 30.15 "Hg

Humidity: 68%

Dew point: 50 °F

Location of NairobiLocation

Historic Weather in Nairobi — Graph

°F

Nairobi temperature yesterday

Maximum temperature yesterday: 79 °F (at 3:00 PM)
Minimum temperature yesterday: 54 °F (at 6:00 AM)
Average temperature yesterday: 69 °F

Past Weeks' High & Low Weather Summary

 TemperatureHumidityPressure
High79 °F (Aug 21, 3:00 PM)100% (Aug 13, 1:00 PM)30.33 "Hg (Aug 13, 1:00 PM)
Low52 °F (Aug 20, 5:00 AM)34% (Aug 21, 4:00 PM)30.07 "Hg (Aug 21, 4:00 PM)
Average65 °F69%30.20 "Hg
* Reported Aug 6 10:00 PM — Aug 21 10:00 PM, Nairobi, Weather by CustomWeather, © 2014

Note: Actual official high and low records may vary slightly from our data, if they occured in-between our weather recording intervals... More about our weather records

Advertising

Nairobi weather history for previous 24 hours

 ConditionsComfort  
Time TempWeatherWind HumidityBarometerVisibility
10:00 PM
Aug 21
68 °FMild.No wind56%30.15 "HgN/A
9:00 PM70 °FPassing clouds.9 mph46%30.12 "HgN/A
8:00 PM72 °FPassing clouds.12 mph41%30.12 "HgN/A
7:00 PM75 °FPassing clouds.17 mph39%30.09 "HgN/A
5:00 PM77 °FPartly sunny.9 mph36%30.07 "HgN/A
4:00 PM79 °FPartly sunny.7 mph34%30.07 "HgN/A
3:00 PM79 °FPartly sunny.7 mph37%30.12 "HgN/A
2:00 PM77 °FScattered clouds.9 mph36%30.15 "HgN/A
1:00 PM73 °FPassing clouds.6 mph47%30.18 "HgN/A
12:00 PM72 °FPartly sunny.12 mph50%30.21 "HgN/A
11:00 AM70 °FPartly sunny.6 mph57%30.27 "HgN/A
10:00 AM66 °FPartly sunny.6 mph64%30.24 "HgN/A
9:00 AM63 °FScattered clouds.No wind77%30.24 "HgN/A
8:00 AM57 °FPassing clouds.No wind88%30.21 "HgN/A
7:00 AM55 °FPassing clouds.No wind88%30.21 "HgN/A
6:00 AM54 °FCool.No wind94%30.18 "HgN/A
Weather by CustomWeather, © 2014

See weather overviewHow to use our weather pages